TimeMDT,TemperatureF,Dew PointF,Humidity,Sea Level PressureIn,VisibilityMPH,Wind Direction,Wind SpeedMPH,Gust SpeedMPH,PrecipitationIn,Events,Conditions,WindDirDegrees,DateUTC
12:53 AM,21.9,17.1,82,30.59,10.0,SSE,3.5,-,N/A,,Clear,160,2011-11-02 06:53:00
1:53 AM,18.0,16.0,92,30.61,10.0,NW,4.6,-,N/A,,Clear,310,2011-11-02 07:53:00
2:53 AM,18.0,15.1,88,30.61,10.0,Calm,Calm,-,N/A,,Clear,0,2011-11-02 08:53:00
3:53 AM,19.0,16.0,88,30.62,10.0,Calm,Calm,-,N/A,,Clear,0,2011-11-02 09:53:00
4:53 AM,18.0,15.1,88,30.62,10.0,Calm,Calm,-,N/A,,Clear,0,2011-11-02 10:53:00
5:53 AM,17.1,14.0,88,30.64,10.0,Calm,Calm,-,N/A,,Clear,0,2011-11-02 11:53:00
6:53 AM,18.0,15.1,88,30.64,10.0,Calm,Calm,-,N/A,,Clear,0,2011-11-02 12:53:00
7:53 AM,17.1,14.0,88,30.64,10.0,SW,4.6,-,N/A,,Clear,230,2011-11-02 13:53:00
8:53 AM,18.0,14.0,84,30.64,10.0,West,3.5,-,N/A,,Clear,280,2011-11-02 14:53:00
9:53 AM,23.0,18.0,81,30.61,10.0,Calm,Calm,-,N/A,,Clear,0,2011-11-02 15:53:00
10:53 AM,28.4,19.4,69,30.41,10.0,Calm,Calm,-,N/A,,Clear,0,2011-11-02 16:53:00
11:53 AM,32.0,18.0,56,30.56,10.0,Variable,3.5,-,N/A,,Clear,0,2011-11-02 17:53:00
12:53 PM,35.1,15.1,44,30.52,10.0,ENE,4.6,-,N/A,,Clear,70,2011-11-02 18:53:00
1:53 PM,39.2,15.8,39,30.31,10.0,WSW,4.6,-,N/A,,Clear,240,2011-11-02 19:53:00
2:53 PM,42.1,15.1,34,30.43,10.0,Calm,Calm,-,N/A,,Clear,0,2011-11-02 20:53:00
3:53 PM,42.1,14.0,32,30.39,10.0,Calm,Calm,-,N/A,,Clear,0,2011-11-02 21:53:00
4:53 PM,43.0,14.0,31,30.35,10.0,West,4.6,-,N/A,,Clear,260,2011-11-02 22:53:00
5:53 PM,39.9,15.1,36,30.33,10.0,Calm,Calm,-,N/A,,Clear,0,2011-11-02 23:53:00
6:53 PM,34.0,18.0,52,30.33,10.0,Calm,Calm,-,N/A,,Clear,0,2011-11-03 00:53:00
7:53 PM,30.0,17.1,59,30.32,10.0,NNW,3.5,-,N/A,,Clear,340,2011-11-03 01:53:00
8:53 PM,26.6,15.8,64,30.09,10.0,Calm,Calm,-,N/A,,Clear,0,2011-11-03 02:53:00
9:53 PM,27.0,18.0,69,30.25,10.0,West,6.9,-,N/A,,Clear,270,2011-11-03 03:53:00
10:53 PM,26.1,17.1,69,30.22,10.0,Calm,Calm,-,N/A,,Clear,0,2011-11-03 04:53:00
11:53 PM,27.0,15.1,61,30.19,10.0,West,3.5,-,N/A,,Clear,270,2011-11-03 05:53:00